KI5MKI Weather Reports


time (UTC)temp
C
wind
direction
speed
KPH
gust
KPH
rain 1hr
cm
rain 24hr
cm
rain mn
cm
humidity
%
barometer
mb
20260509135117 21 103 6.4 8.0 0.00 0.00 0.00 96 1011.0
20260509134613 21 108 3.2 8.0 0.00 0.00 0.00 96 1011.0
20260509134111 21 125 4.8 8.0 0.00 0.00 0.00 96 1010.9
20260509133608 21 95 3.2 6.4 0.00 0.00 0.00 96 1011.0
20260509133105 21 105 3.2 4.8 0.00 0.00 0.00 96 1011.0
20260509132603 21 121 1.6 4.8 0.00 0.00 0.00 96 1011.2
20260509132101 20 85 3.2 4.8 0.00 0.00 0.00 96 1011.1
20260509131557 20 96 4.8 4.8 0.00 0.00 0.00 96 1011.3
20260509131054 20 30 1.6 3.2 0.00 0.00 0.00 96 1011.3
20260509130550 20 75 0.0 3.2 0.00 0.00 0.00 96 1011.3
20260509130047 20 46 1.6 4.8 0.00 0.00 0.00 96 1011.2
20260509125543 20 112 3.2 4.8 0.00 0.00 0.00 96 1011.4
20260509125040 20 65 3.2 3.2 0.00 0.00 0.00 96 1011.4
20260509124536 20 86 3.2 4.8 0.00 0.00 0.00 96 1011.3
20260509124033 20 84 3.2 4.8 0.00 0.00 0.00 96 1011.4
20260509123532 20 50 3.2 4.8 0.00 0.00 0.00 96 1011.4
20260509123027 20 101 4.8 4.8 0.00 0.00 0.00 96 1011.2
20260509122524 20 109 3.2 4.8 0.00 0.00 0.00 96 1011.1
20260509122021 20 119 4.8 4.8 0.00 0.00 0.00 96 1011.2
20260509121517 20 5 0.0 3.2 0.00 0.00 0.00 96 1011.3
20260509121015 20 8 1.6 3.2 0.00 0.00 0.00 96 1011.4
20260509120514 20 357 1.6 3.2 0.00 0.00 0.00 96 1011.1
20260509120011 20 11 3.2 3.2 0.00 1.50 1.50 96 1011.2
20260509115508 20 345 1.6 3.2 0.00 1.50 1.50 96 1011.1
20260509115006 20 120 6.4 6.4 0.00 1.50 1.50 96 1011.1
20260509114504 20 49 0.0 3.2 0.00 1.50 1.50 95 1011.1
20260509114003 20 275 1.6 1.6 0.00 1.50 1.50 95 1011.1
20260509113500 20 19 1.6 3.2 0.00 1.50 1.50 95 1010.9
20260509112957 20 8 3.2 4.8 0.00 1.50 1.50 95 1010.9
20260509112454 20 331 4.8 6.4 0.00 1.50 1.50 95 1010.6
20260509111950 20 320 3.2 4.8 0.00 1.50 1.50 95 1010.5
20260509111448 20 2 1.6 4.8 0.00 1.50 1.50 95 1010.3
20260509110945 20 61 0.0 3.2 0.00 1.50 1.50 95 1009.8
20260509110441 20 22 1.6 1.6 0.00 1.50 1.50 95 1009.8
20260509105939 20 34 1.6 3.2 0.00 1.50 1.50 95 1010.2
20260509105438 20 326 3.2 4.8 0.00 1.50 1.50 95 1010.2
20260509104934 20 348 1.6 3.2 0.00 1.50 1.50 95 1010.0
20260509104431 20 348 0.0 1.6 0.00 1.50 1.50 95 1009.8
20260509103928 20 327 3.2 3.2 0.00 1.50 1.50 95 1009.7
20260509103426 20 336 3.2 4.8 0.00 1.50 1.50 95 1009.7
20260509102924 20 357 1.6 3.2 0.00 1.50 1.50 95 1009.6
20260509102421 20 342 3.2 3.2 0.00 1.50 1.50 95 1009.3
20260509101917 19 311 3.2 3.2 0.00 1.50 1.50 95 1009.6
20260509101413 19 38 0.0 1.6 0.00 1.50 1.50 95 1009.2
20260509100911 19 24 0.0 3.2 0.00 1.50 1.50 95 1009.2
20260509100408 19 109 3.2 6.4 0.00 1.50 1.50 95 1009.0
20260509095904 19 115 6.4 6.4 0.00 1.50 1.50 95 1009.0
20260509095402 19 118 6.4 6.4 0.00 1.50 1.50 95 1009.1
20260509094859 19 113 6.4 8.0 0.00 1.50 1.50 95 1009.0
20260509094355 19 94 8.0 9.7 0.00 1.50 1.50 95 1008.8
20260509093853 19 135 9.7 12.9 0.00 1.50 1.50 95 1008.7
20260509093350 19 123 6.4 11.3 0.00 1.50 1.50 95 1008.7
20260509092849 19 124 9.7 9.7 0.00 1.50 1.50 95 1008.8
20260509092346 19 131 6.4 11.3 0.00 1.50 1.50 95 1008.8
20260509091844 19 164 4.8 12.9 0.00 1.50 1.50 95 1009.0
20260509091340 19 158 6.4 11.3 0.00 1.50 1.50 95 1009.1
20260509090838 20 153 8.0 9.7 0.00 1.50 1.50 95 1009.5
20260509090335 20 103 4.8 9.7 0.00 1.50 1.50 95 1009.5
20260509085832 20 104 6.4 8.0 0.00 1.50 1.50 95 1009.7
20260509085330 20 148 4.8 4.8 0.00 1.50 1.50 95 1010.1
20260509084826 20 58 3.2 6.4 0.00 1.50 1.50 95 1010.2
20260509084323 20 111 3.2 6.4 0.00 1.50 1.50 95 1010.3
20260509083821 20 137 3.2 6.4 0.00 1.50 1.50 95 1010.3
20260509083317 20 140 0.0 4.8 0.00 1.50 1.50 95 1010.1
20260509082814 19 114 4.8 9.7 0.00 1.50 1.50 95 1010.1
20260509082310 19 138 6.4 12.9 0.00 1.50 1.50 95 1010.2
20260509081808 19 125 8.0 11.3 0.00 1.50 1.50 95 1010.2
20260509081305 19 128 6.4 9.7 0.00 1.50 1.50 95 1010.2
20260509080803 19 138 9.7 9.7 0.00 1.50 1.50 95 1010.5
20260509080300 19 117 4.8 8.0 0.00 1.50 1.50 95 1010.6
20260509075759 19 160 4.8 9.7 0.00 1.50 1.50 95 1010.6
20260509075255 19 120 4.8 9.7 0.00 1.50 1.50 95 1010.6
20260509074752 20 116 3.2 6.4 0.00 1.50 1.50 95 1011.0
20260509074250 20 147 3.2 6.4 0.00 1.50 1.50 95 1011.1
20260509073746 19 108 1.6 4.8 0.00 1.50 1.50 95 1011.2
20260509073243 19 140 0.0 3.2 0.00 1.50 1.50 95 1011.3
20260509072739 19 10 1.6 3.2 0.00 1.50 1.50 95 1011.4
20260509072236 20 315 0.0 3.2 0.00 1.50 1.50 95 1011.3
20260509071733 20 330 3.2 4.8 0.00 1.50 1.50 95 1011.4
20260509071230 20 337 3.2 3.2 0.00 1.50 1.50 95 1011.2
20260509070727 20 13 0.0 3.2 0.00 1.50 1.50 95 1011.3
20260509070223 20 293 0.0 4.8 0.00 1.50 1.50 95 1011.2
20260509065720 20 328 0.0 3.2 0.00 1.50 1.50 95 1011.0
20260509065216 20 331 3.2 3.2 0.00 1.50 1.50 95 1010.9
20260509064712 20 76 0.0 3.2 0.00 1.50 1.50 95 1011.2
20260509064210 20 326 1.6 3.2 0.00 1.50 1.50 95 1011.3
20260509063707 20 320 3.2 3.2 0.00 1.50 1.50 95 1011.3
20260509063203 20 305 1.6 3.2 0.00 1.50 1.50 95 1011.3
20260509062701 20 37 0.0 3.2 0.00 1.50 1.50 95 1011.4
20260509062158 20 13 0.0 1.6 0.00 1.50 1.50 95 1011.5
20260509061655 20 20 3.2 3.2 0.00 1.50 1.50 95 1011.6
20260509061152 20 6 0.0 1.6 0.00 1.50 1.50 95 1011.8
20260509060650 20 323 0.0 3.2 0.00 1.50 1.50 95 1011.7
20260509060146 19 10 1.6 3.2 0.00 1.50 1.50 95 1011.6
20260509055641 19 358 0.0 0.0 0.00 1.50 1.50 95 1011.7
20260509055138 19 40 0.0 1.6 0.00 1.50 1.50 95 1011.7
20260509054634 19 31 0.0 1.6 0.00 1.50 1.50 95 1011.6
20260509054132 19 150 1.6 3.2 0.00 1.50 1.50 95 1011.3
20260509053630 19 144 3.2 8.0 0.00 1.50 1.50 95 1011.2
20260509053127 19 122 3.2 4.8 0.00 1.50 1.50 95 1011.2
20260509052625 19 312 1.6 1.6 0.00 1.50 1.50 94 1011.5
20260509052122 19 32 0.0 1.6 0.00 1.50 1.50 94 1011.2
20260509051620 19 93 0.0 4.8 0.00 1.50 1.50 94 1011.0
20260509051117 19 148 1.6 4.8 0.00 1.50 1.50 94 1011.1
20260509050614 19 126 3.2 3.2 0.00 1.50 1.50 94 1011.1
20260509050110 19 324 3.2 3.2 0.00 1.50 1.50 94 1011.1
20260509045608 19 344 1.6 3.2 0.00 1.50 1.50 94 1010.7
20260509045104 19 110 1.6 3.2 0.00 1.50 1.50 94 1010.5
20260509044602 19 323 0.0 1.6 0.00 1.50 1.50 94 1010.7
20260509044059 19 196 0.0 4.8 0.00 1.50 1.50 94 1011.0
20260509043555 19 144 0.0 3.2 0.00 1.50 1.50 94 1011.0
20260509043051 19 289 3.2 4.8 0.00 1.50 1.50 94 1011.3
20260509042547 19 282 3.2 4.8 0.05 1.50 1.50 94 1011.1
20260509042044 19 127 4.8 9.7 0.23 1.50 1.50 93 1010.8
20260509041540 19 108 6.4 24.1 0.79 1.50 1.50 93 1009.8
20260509041038 19 121 12.9 41.8 1.98 1.47 1.47 93 1009.4
20260509040536 19 116 14.5 24.1 4.27 1.40 1.40 92 1009.7
20260509040033 19 145 12.9 20.9 2.34 1.02 1.02 92 1010.5
20260509035530 20 143 8.0 12.9 0.43 0.69 0.69 92 1011.3
20260509035026 20 199 1.6 3.2 0.00 0.61 0.61 92 1011.5
20260509034525 20 89 0.0 0.0 0.00 0.61 0.61 91 1011.4
20260509034021 20 248 0.0 3.2 0.05 0.61 0.61 91 1011.0
20260509033518 20 77 1.6 3.2 0.43 0.61 0.61 91 1011.0
20260509033015 20 69 0.0 1.6 0.48 0.61 0.61 90 1011.3
20260509032512 20 286 1.6 3.2 2.29 0.56 0.56 89 1011.3
20260509032010 20 7 1.6 6.4 2.39 0.43 0.43 88 1011.1
20260509031507 20 354 1.6 4.8 0.79 0.13 0.13 87 1011.4
20260509031004 20 49 1.6 3.2 0.13 0.03 0.03 85 1011.1
20260509030502 21 123 4.8 14.5 0.00 0.00 0.00 83 1010.7
20260509025953 21 115 6.4 9.7 0.00 0.00 0.00 82 1010.8
20260509025448 21 136 9.7 11.3 0.00 0.00 0.00 80 1010.8
20260509024944 22 170 1.6 3.2 0.00 0.00 0.00 78 1010.9
20260509024440 22 132 3.2 3.2 0.00 0.00 0.00 78 1010.7
20260509023937 22 124 3.2 3.2 0.00 0.00 0.00 78 1010.5
20260509023435 22 142 0.0 3.2 0.00 0.00 0.00 77 1010.4
20260509022931 22 112 3.2 4.8 0.00 0.00 0.00 77 1010.3
20260509022428 22 160 0.0 0.0 0.00 0.00 0.00 77 1010.2
20260509021926 22 137 3.2 4.8 0.00 0.00 0.00 77 1010.0
20260509021422 22 144 3.2 4.8 0.00 0.00 0.00 77 1010.0
20260509020920 22 58 0.0 3.2 0.00 0.00 0.00 77 1009.6
20260509020418 22 89 1.6 4.8 0.00 0.00 0.00 76 1009.5
20260509015915 22 140 3.2 4.8 0.00 0.00 0.00 76 1009.7
20260509015414 22 139 3.2 6.4 0.00 0.00 0.00 76 1009.5
20260509014910 22 145 3.2 6.4 0.00 0.00 0.00 75 1010.0
20260509014407 22 138 1.6 4.8 0.00 0.00 0.00 75 1009.7
20260509013903 22 146 3.2 3.2 0.00 0.00 0.00 75 1009.8
20260509013400 22 140 1.6 4.8 0.00 0.00 0.00 75 1009.6
20260509012855 22 124 0.0 3.2 0.00 0.00 0.00 75 1009.6
20260509012352 22 113 3.2 3.2 0.00 0.00 0.00 74 1009.5
20260509011850 22 139 3.2 4.8 0.00 0.00 0.00 74 1009.5
20260509011347 22 135 0.0 3.2 0.00 0.00 0.00 74 1009.2
20260509010845 22 141 3.2 4.8 0.00 0.00 0.00 73 1009.4
20260509010342 22 146 3.2 4.8 0.00 0.00 0.00 73 1009.2
20260509005839 22 154 1.6 4.8 0.00 0.00 0.00 72 1009.3
20260509005337 22 141 3.2 4.8 0.00 0.00 0.00 71 1009.2
20260509004837 23 119 4.8 6.4 0.00 0.00 0.00 70 1008.9
20260509004334 23 128 4.8 4.8 0.00 0.00 0.00 69 1009.0
20260509003831 23 180 4.8 6.4 0.00 0.00 0.00 69 1009.0
20260509003329 23 151 3.2 6.4 0.00 0.00 0.00 68 1009.0
20260509002826 23 173 3.2 6.4 0.00 0.00 0.00 68 1009.0
20260509002323 23 134 8.0 8.0 0.00 0.00 0.00 67 1009.1
20260509001821 23 163 4.8 9.7 0.00 0.00 0.00 66 1009.1
20260509001317 23 158 4.8 9.7 0.00 0.00 0.00 66 1008.9
20260509000815 24 127 4.8 8.0 0.00 0.00 0.00 64 1009.1
20260509000312 24 181 6.4 12.9 0.00 0.00 0.00 64 1009.0
20260508235803 25 157 8.0 9.7 0.00 0.00 0.00 64 1009.2
20260508235300 25 156 6.4 9.7 0.00 0.00 0.00 63 1009.3
20260508234757 25 152 6.4 9.7 0.00 0.00 0.00 63 1009.2
20260508234252 25 146 6.4 9.7 0.00 0.00 0.00 61 1009.2
20260508233746 25 154 6.4 14.5 0.00 0.00 0.00 62 1009.5
20260508233244 25 113 4.8 8.0 0.00 0.00 0.00 63 1009.5
20260508232741 24 128 9.7 14.5 0.00 0.00 0.00 62 1009.5
20260508232238 24 105 6.4 19.3 0.00 0.00 0.00 63 1009.5
20260508231736 25 118 8.0 11.3 0.00 0.00 0.00 61 1009.4
20260508231232 25 158 6.4 12.9 0.00 0.00 0.00 60 1009.4
20260508230729 25 200 4.8 4.8 0.00 0.00 0.00 61 1009.4
20260508230225 25 166 4.8 12.9 0.00 0.00 0.00 61 1009.5
20260508225723 25 131 6.4 11.3 0.00 0.00 0.00 59 1009.7
20260508225219 25 135 4.8 9.7 0.00 0.00 0.00 58 1009.7
20260508224718 25 143 8.0 14.5 0.00 0.00 0.00 57 1009.5
20260508224215 25 153 6.4 9.7 0.00 0.00 0.00 59 1009.4
20260508223712 26 108 8.0 16.1 0.00 0.00 0.00 57 1008.8
20260508223209 26 160 6.4 6.4 0.00 0.00 0.00 59 1008.4
20260508222707 26 149 14.5 16.1 0.00 0.00 0.00 58 1008.2
20260508222204 26 128 9.7 11.3 0.00 0.00 0.00 57 1008.4
20260508221700 25 120 9.7 17.7 0.00 0.00 0.00 59 1008.7
20260508221156 25 111 8.0 14.5 0.00 0.00 0.00 60 1009.0
20260508220652 25 121 6.4 11.3 0.00 0.00 0.00 61 1009.4
20260508220149 24 109 6.4 14.5 0.00 0.00 0.00 63 1009.6
20260508215646 23 128 8.0 8.0 0.00 0.00 0.00 64 1010.1
20260508215142 23 162 6.4 9.7 0.00 0.00 0.00 64 1010.2
20260508214639 23 136 11.3 11.3 0.00 0.00 0.00 63 1010.3
20260508214137 23 154 9.7 14.5 0.00 0.00 0.00 63 1010.3
20260508213633 23 159 4.8 11.3 0.00 0.00 0.00 63 1010.1
20260508213129 24 135 8.0 9.7 0.00 0.00 0.00 63 1010.2
20260508212626 24 174 4.8 9.7 0.00 0.00 0.00 61 1010.4
20260508212123 24 163 6.4 8.0 0.00 0.00 0.00 61 1010.4
20260508211618 24 152 6.4 9.7 0.00 0.00 0.00 60 1010.5
20260508211115 24 176 3.2 6.4 0.00 0.00 0.00 59 1010.6
20260508210611 25 154 6.4 11.3 0.00 0.00 0.00 59 1010.3
20260508210109 25 135 9.7 9.7 0.00 0.00 0.00 58 1010.5
20260508205606 25 148 4.8 14.5 0.00 0.00 0.00 58 1010.5
20260508205102 25 186 3.2 8.0 0.00 0.00 0.00 59 1010.8
20260508204558 25 163 6.4 6.4 0.00 0.00 0.00 61 1010.6
20260508204054 25 137 3.2 11.3 0.00 0.00 0.00 59 1010.7
20260508203551 25 127 11.3 14.5 0.00 0.00 0.00 57 1010.6
20260508203047 25 236 3.2 4.8 0.00 0.00 0.00 60 1010.9
20260508202543 25 124 6.4 9.7 0.00 0.00 0.00 58 1010.9
20260508202041 26 127 8.0 9.7 0.00 0.00 0.00 56 1010.9
20260508201537 25 105 3.2 9.7 0.00 0.00 0.00 56 1010.9
20260508201034 25 185 4.8 8.0 0.00 0.00 0.00 57 1011.1
20260508200531 25 123 14.5 20.9 0.00 0.00 0.00 55 1011.2
20260508200027 25 118 9.7 12.9 0.00 0.00 0.00 57 1011.1
20260508195524 25 99 4.8 12.9 0.00 0.00 0.00 55 1011.3
20260508195020 25 115 11.3 16.1 0.00 0.00 0.00 54 1011.2
20260508194517 25 124 16.1 16.1 0.00 0.00 0.00 51 1011.5
20260508194014 25 142 8.0 20.9 0.00 0.00 0.00 53 1011.3
20260508193510 25 117 8.0 17.7 0.00 0.00 0.00 53 1011.4
20260508193007 25 124 12.9 16.1 0.00 0.00 0.00 55 1011.3
20260508192504 25 118 6.4 12.9 0.00 0.00 0.00 56 1011.5
20260508192001 25 178 6.4 9.7 0.00 0.00 0.00 56 1011.6
20260508191458 25 138 9.7 17.7 0.00 0.00 0.00 59 1011.8
20260508190954 25 119 12.9 12.9 0.00 0.00 0.00 60 1011.8
20260508190452 25 201 6.4 17.7 0.00 0.00 0.00 57 1011.8
20260508185948 24 138 3.2 16.1 0.00 0.00 0.00 58 1011.7
20260508185445 25 147 12.9 16.1 0.00 0.00 0.00 57 1011.8
20260508184943 25 187 0.0 16.1 0.00 0.00 0.00 56 1012.0
20260508184440 25 165 1.6 4.8 0.00 0.00 0.00 64 1012.0
20260508183937 25 138 11.3 19.3 0.00 0.00 0.00 57 1012.0
20260508183433 25 138 6.4 16.1 0.00 0.00 0.00 59 1012.1
20260508182928 25 184 3.2 6.4 0.00 0.00 0.00 59 1012.0
20260508182426 25 111 3.2 12.9 0.00 0.00 0.00 57 1012.4
20260508181926 25 118 11.3 16.1 0.00 0.00 0.00 55 1012.3
20260508181423 25 144 6.4 11.3 0.00 0.00 0.00 59 1012.5
20260508180921 23 129 3.2 9.7 0.00 0.00 0.00 59 1012.6
20260508180418 23 155 3.2 9.7 0.00 0.00 0.00 62 1013.0
20260508175913 24 166 11.3 14.5 0.00 0.00 0.00 63 1012.7
20260508175410 23 147 3.2 9.7 0.00 0.00 0.00 62 1013.0
20260508174908 24 89 0.0 12.9 0.00 0.00 0.00 63 1013.3
20260508174406 24 118 11.3 11.3 0.00 0.00 0.00 61 1013.2
20260508173902 23 181 6.4 8.0 0.00 0.00 0.00 62 1013.3
20260508173359 24 185 4.8 9.7 0.00 0.00 0.00 59 1013.4
20260508172855 23 142 3.2 8.0 0.00 0.00 0.00 65 1013.5
20260508172353 23 147 8.0 16.1 0.00 0.00 0.00 62 1013.6
20260508171848 22 159 4.8 6.4 0.00 0.00 0.00 63 1013.7
20260508171345 23 128 3.2 9.7 0.00 0.00 0.00 62 1013.8
20260508170842 22 151 12.9 12.9 0.00 0.00 0.00 63 1013.9
20260508170340 22 141 9.7 9.7 0.00 0.00 0.00 66 1014.2
20260508165836 22 191 3.2 14.5 0.00 0.00 0.00 64 1014.2
20260508165334 22 134 9.7 12.9 0.00 0.00 0.00 66 1014.4
20260508164829 22 148 6.4 16.1 0.00 0.00 0.00 65 1014.5
20260508164326 23 145 11.3 12.9 0.00 0.00 0.00 68 1014.4
20260508163825 22 159 9.7 17.7 0.00 0.00 0.00 65 1014.4
20260508163322 22 147 9.7 9.7 0.00 0.00 0.00 67 1014.5
20260508162817 22 168 3.2 6.4 0.00 0.00 0.00 65 1014.5
20260508162314 22 207 3.2 9.7 0.00 0.00 0.00 66 1014.5
20260508161812 22 166 6.4 9.7 0.00 0.00 0.00 68 1014.5
20260508161309 21 194 6.4 16.1 0.00 0.00 0.00 69 1014.4
20260508160806 21 171 6.4 14.5 0.00 0.00 0.00 71 1014.7
20260508160305 21 133 4.8 14.5 0.00 0.00 0.00 69 1014.5
20260508155801 21 151 14.5 19.3 0.00 0.00 0.00 68 1014.5
20260508155258 21 143 11.3 20.9 0.00 0.00 0.00 68 1014.3
20260508154754 21 121 14.5 20.9 0.00 0.00 0.00 69 1014.3
20260508154252 21 140 9.7 19.3 0.00 0.00 0.00 69 1014.5
20260508153748 21 136 8.0 16.1 0.00 0.00 0.00 72 1014.5
20260508153246 20 121 11.3 16.1 0.00 0.00 0.00 72 1014.6
20260508152742 20 97 4.8 14.5 0.00 0.00 0.00 72 1014.8
20260508152238 20 104 6.4 9.7 0.00 0.00 0.00 72 1014.7
20260508151734 20 110 8.0 12.9 0.00 0.00 0.00 72 1014.7
20260508151232 20 127 9.7 14.5 0.00 0.00 0.00 72 1014.9
20260508150728 20 137 12.9 14.5 0.00 0.00 0.00 70 1015.0
20260508150225 20 144 8.0 14.5 0.00 0.00 0.00 72 1014.9
20260508145721 19 104 6.4 9.7 0.00 0.00 0.00 72 1014.9
20260508145217 20 141 8.0 9.7 0.00 0.00 0.00 73 1015.1
20260508144714 20 129 4.8 8.0 0.00 0.00 0.00 73 1015.4
20260508144212 18 71 1.6 6.4 0.00 0.00 0.00 77 1015.0
20260508143709 18 120 6.4 11.3 0.00 0.00 0.00 80 1015.2
20260508143206 18 124 11.3 12.9 0.00 0.00 0.00 79 1015.0
20260508142702 17 114 11.3 16.1 0.00 0.00 0.00 80 1015.1
20260508142159 17 137 11.3 14.5 0.00 0.00 0.00 80 1015.2
20260508141656 17 129 6.4 8.0 0.00 0.00 0.00 81 1014.9
20260508141154 17 147 8.0 11.3 0.00 0.00 0.00 84 1014.9
20260508140651 17 94 3.2 16.1 0.00 0.00 0.00 85 1014.9
20260508140148 17 139 14.5 16.1 0.00 0.00 0.00 87 1014.8
20260508135643 17 109 8.0 14.5 0.00 0.00 0.00 87 1014.7